GIF89;aGIF89;aGIF89;a aDriv4 website!

For more Private tool come to me!

https://t.me/aDriv4vz

aDriv4 Web SheLL
 Linux server64.web-hosting.com 4.18.0-513.18.1.lve.el8.x86_64 #1 SMP Thu Feb 22 12:55:50 UTC 2024 x86_64
 LiteSpeed
 198.54.116.248

Name Type Size Owner/Group Permission Last Modified Actions
. dir - root/root 0755 2024-03-21 09:31:16
.. dir - root/root 0755 2024-03-21 09:31:16
README file 7.29 KB root/root 0644 2017-03-04 05:26:20
README.extfs file 1.11 KB root/root 0644 2017-02-24 08:25:57
a+ file 3.13 KB root/root 0755 2019-10-18 08:37:56
apt+ file 9.5 KB root/root 0755 2019-10-18 08:37:56
audio file 1.29 KB root/root 0755 2019-10-18 08:37:56
bpp file 1.18 KB root/root 0755 2017-02-24 08:25:57
changesetfs file 2.5 KB root/root 0755 2017-02-24 08:25:57
deb file 5.34 KB root/root 0755 2019-10-18 08:37:56
deba file 3 KB root/root 0755 2019-10-18 08:37:56
debd file 10.26 KB root/root 0755 2019-10-18 08:37:56
dpkg+ file 8.79 KB root/root 0755 2019-10-18 08:37:56
gitfs+ file 782 B root/root 0755 2017-02-24 08:25:57
hp48+ file 3.58 KB root/root 0755 2019-10-18 08:37:56
iso9660 file 5.65 KB root/root 0755 2019-10-18 08:37:56
lslR file 1.38 KB root/root 0755 2019-10-18 08:37:56
mailfs file 5.59 KB root/root 0755 2019-10-18 08:37:56
patchfs file 10.88 KB root/root 0755 2019-10-18 08:37:56
patchsetfs file 2.26 KB root/root 0755 2017-02-24 08:25:57
rpm file 13.25 KB root/root 0755 2017-03-04 05:26:20
rpms+ file 1.47 KB root/root 0755 2019-10-18 08:37:56
trpm file 7.65 KB root/root 0755 2017-02-24 08:25:57
u7z file 4.71 KB root/root 0755 2017-03-04 05:26:20
uace file 1.47 KB root/root 0755 2019-10-18 08:37:56
ualz file 1.25 KB root/root 0755 2019-10-18 08:37:56
uar file 1.29 KB root/root 0755 2019-10-18 08:37:56
uarc file 1.79 KB root/root 0755 2019-10-18 08:37:56
uarj file 1.62 KB root/root 0755 2019-10-18 08:37:56
ucab file 734 B root/root 0755 2019-10-18 08:37:56
uha file 969 B root/root 0755 2019-10-18 08:37:56
ulha file 3.78 KB root/root 0755 2019-10-18 08:37:56
ulib file 2.76 KB root/root 0755 2019-10-18 08:37:56
urar file 4.37 KB root/root 0755 2019-10-18 08:37:56
uzip file 14.9 KB root/root 0755 2019-10-18 08:37:56
uzoo file 1.56 KB root/root 0755 2019-10-18 08:37:56
© aDriv4